Find Starlink 11273

NORAD ID: 60913 Int'l Des: 2024-154 Owner: SPXS Country: US Constellation: starlink operational
LEOCIRCULAR

現在のビュー

3D地球を読み込み中...

About Starlink 11273

Starlink 11273 (NORAD 60913) is a starlink constellation satellite (v2 mini d2c) launched Aug 31, 2024 by SPXS of US. It operates in LEO, CIRCULAR orbit with a mass of 960.00 kg.

Starlink 11273について

説明を読み込み中...

次回通過

Passes for default location (London). Set your location on the main map for personalized predictions.

高度履歴

Loading altitude history...

軌道要素

1 60913U 24154L 26165.83678084 .00000293 00000-0 72750-5 0 9999
2 60913 53.1597 12.2743 0000947 96.2342 263.8784 15.69700628103765
Epoch: Jun 14, 2026 • Age: 6 hours

現在のステータス

高度 360.9 km
速度 7.70 km/s
衛星直下点 28.35°N, 96.07°E
打ち上げ日 Aug 31, 2024
運用期間 1.7 years
タイプ internet

技術仕様

分類 Payload
質量 960.00 kg
乾燥質量 910.00 kg
総質量 960.00 kg
長さ 0.30 m
直径 4.10 m
スパン 29.00 m
形状 Box + pan
製造者 SPXS
バスタイプ Starlink V2MD
フェーズステータス In Orbit
所有者/国 SPXS/US

Most Searched